Погода в Понта-Гроса

Бразилия     25°05′35″S   50°09′11″W
темп.,
°C
ветер,
м/с
пор.,
м/с
влажн.,
%
обл.,
%
осадки,
мм/ч
давл.,
гПа
погр.,
м
27 февраля, сб
сб2700:00+16юв369529 0.0 1016163
03:00+17ююв388958 0.0 1015463
06:00+15ююв259738 0.0 1015156
09:00+19вюв378769 0.0 1016642
12:00+22юв458650 3.4 1015757
15:00+23ююв688726 10.5 1014859
18:00+20вюв6129348 5.6 1014822
21:00+18вюв4129673 5.7 1016634
28 февраля, вс
вс2800:00+17вюв3109638 0.0 1016467
03:00+17юв389763 0.1 1014399
06:00+17юв379770 0.0 1015301
09:00+18юв479485 0.0 1016469
12:00+19вюв2495100 0.5 1015335
15:00+23юв237888 0.5 1012737
18:00+22в259045 4.8 1011226
21:00+18всв4109441 7.9 1013287
1 марта, пн
пн100:00+18всв4109495 0.1 1014329
03:00+17св259497 0.1 1012134
06:00+15св22940 0.0 101346
09:00+22с26810 0.0 1014704
12:00+24ссз46780 1.8 1012952
15:00+25ссз34811 5.3 1010936
18:00+23с128863 4.8 101049
21:00+19всв349182 10.6 101273
2 марта, вт
вт200:00+18всв1292100 2.4 101434
03:00+18ссв2493100 2.6 101287
06:00+17ссв259490 0.0 1013137
09:00+22ссз488481 0.0 1014723
12:00+24с468246 4.5 1013710
15:00+24ссз578467 10.9 1011607
18:00+22ссз2588100 5.4 1012160
21:00+20с1191100 8.2 101523
3 марта, ср
ср300:00+18юв4898100 6.4 1016289
03:00+18св3896100 9.2 1015215
06:00+17ссв249592 1.6 1015111
09:00+22ссз488446 1.6 1017630
12:00+26ссз35740 1.6 10151101
15:00+25ссз227721 6.2 1013517
18:00+23с1287100 5.8 101323
21:00+20всв1289100 6.4 101525